PWSweather.com
Personal Weather Stations
Station Observations
MAGOO
Kiefer, OK 74041

Kiefer, OK 74041

Lat: 35.9417305, Lon: -96.03782654

Elevation: 699

Station Type: WMR100N

Latest ConditionsUpdated 6:20:00 AM CST Friday, Jan 30, 2015
Currently Today's Max Today's Min Today's Average
Temperature -5537.2°C 0.0°F-17.8°C 0.0°F-17.8°C 0.0°F-17.8°C
Dew Point -5537.2°C 0.0°F-17.8°C 0.0°F-17.8°C 0.0°F-17.8°C
Winds 2.0 mph NW3.2 kmh NW 4.0 mph N6.4 kmh N - 2.3 mph 3.7 kmh
Wind Gusts 2.0 mph3.2 kmh 6.0 mph9.7 kmh - -
Humidity - 0% 0% 0%
Pressure 30.54 in1034.2 mb 30.57 in1035.2 mb 30.54 in1034.2 mb -
Hour Temp Dew Point Humidity Winds Wind Gusts Pressure Precip Precip Rate Daily Precip Total
06:20 AM -5537.2°C -5537.2°C - 2.0 mph NW3.2 kmh NW 2.0 mph3.2 kmh 30.54 in1034.2 mb 0.00 in0.0 mm 0.00 in/hr0.0 mm/hr 0.00 in0.0 mm
06:15 AM -5537.2°C -5537.2°C - 2.0 mph NNW3.2 kmh NNW 3.0 mph4.8 kmh 30.54 in1034.2 mb 0.00 in0.0 mm 0.00 in/hr0.0 mm/hr 0.00 in0.0 mm
06:10 AM -5537.2°C -5537.2°C - 2.0 mph NW3.2 kmh NW 3.0 mph4.8 kmh 30.54 in1034.2 mb 0.00 in0.0 mm 0.00 in/hr0.0 mm/hr 0.00 in0.0 mm
06:05 AM -5537.2°C -5537.2°C - 2.0 mph NW3.2 kmh NW 3.0 mph4.8 kmh 30.54 in1034.2 mb 0.00 in0.0 mm 0.00 in/hr0.0 mm/hr 0.00 in0.0 mm
06:00 AM -5537.2°C -5537.2°C - 2.0 mph NNW3.2 kmh NNW 3.0 mph4.8 kmh 30.54 in1034.2 mb 0.00 in0.0 mm 0.00 in/hr0.0 mm/hr 0.00 in0.0 mm
05:55 AM -5537.2°C -5537.2°C - 3.0 mph NNW4.8 kmh NNW 4.0 mph6.4 kmh 30.54 in1034.2 mb 0.00 in0.0 mm 0.00 in/hr0.0 mm/hr 0.00 in0.0 mm
05:50 AM -5537.2°C -5537.2°C - 3.0 mph NNW4.8 kmh NNW 5.0 mph8.0 kmh 30.54 in1034.2 mb 0.00 in0.0 mm 0.00 in/hr0.0 mm/hr 0.00 in0.0 mm
05:45 AM -5537.2°C -5537.2°C - 3.0 mph NNW4.8 kmh NNW 4.0 mph6.4 kmh 30.54 in1034.2 mb 0.00 in0.0 mm 0.00 in/hr0.0 mm/hr 0.00 in0.0 mm
05:40 AM -5537.2°C -5537.2°C - 2.0 mph NNW3.2 kmh NNW 4.0 mph6.4 kmh 30.54 in1034.2 mb 0.00 in0.0 mm 0.00 in/hr0.0 mm/hr 0.00 in0.0 mm
05:35 AM -5537.2°C -5537.2°C - 2.0 mph NNW3.2 kmh NNW 3.0 mph4.8 kmh 30.54 in1034.2 mb 0.00 in0.0 mm 0.00 in/hr0.0 mm/hr 0.00 in0.0 mm
05:30 AM -5537.2°C -5537.2°C - 3.0 mph N4.8 kmh N 4.0 mph6.4 kmh 30.54 in1034.2 mb 0.00 in0.0 mm 0.00 in/hr0.0 mm/hr 0.00 in0.0 mm
05:25 AM -5537.2°C -5537.2°C - 3.0 mph NNW4.8 kmh NNW 4.0 mph6.4 kmh 30.54 in1034.2 mb 0.00 in0.0 mm 0.00 in/hr0.0 mm/hr 0.00 in0.0 mm
05:20 AM -5537.2°C -5537.2°C - 3.0 mph NNW4.8 kmh NNW 4.0 mph6.4 kmh 30.54 in1034.2 mb 0.00 in0.0 mm 0.00 in/hr0.0 mm/hr 0.00 in0.0 mm
05:15 AM -5537.2°C -5537.2°C - 3.0 mph NW4.8 kmh NW 4.0 mph6.4 kmh 30.54 in1034.2 mb 0.00 in0.0 mm 0.00 in/hr0.0 mm/hr 0.00 in0.0 mm
05:10 AM -5537.2°C -5537.2°C - 2.0 mph NNW3.2 kmh NNW 3.0 mph4.8 kmh 30.54 in1034.2 mb 0.00 in0.0 mm 0.00 in/hr0.0 mm/hr 0.00 in0.0 mm
05:00 AM -5537.2°C -5537.2°C - 3.0 mph N4.8 kmh N 5.0 mph8.0 kmh 30.54 in1034.2 mb 0.00 in0.0 mm 0.00 in/hr0.0 mm/hr 0.00 in0.0 mm
04:55 AM -5537.2°C -5537.2°C - 3.0 mph NNW4.8 kmh NNW 3.0 mph4.8 kmh 30.54 in1034.2 mb 0.00 in0.0 mm 0.00 in/hr0.0 mm/hr 0.00 in0.0 mm
04:50 AM -5537.2°C -5537.2°C - 3.0 mph NNW4.8 kmh NNW 3.0 mph4.8 kmh 30.54 in1034.2 mb 0.00 in0.0 mm 0.00 in/hr0.0 mm/hr 0.00 in0.0 mm
04:45 AM -5537.2°C -5537.2°C - 3.0 mph NNW4.8 kmh NNW 4.0 mph6.4 kmh 30.54 in1034.2 mb 0.00 in0.0 mm 0.00 in/hr0.0 mm/hr 0.00 in0.0 mm
04:40 AM -5537.2°C -5537.2°C - 2.0 mph N3.2 kmh N 3.0 mph4.8 kmh 30.54 in1034.2 mb 0.00 in0.0 mm 0.00 in/hr0.0 mm/hr 0.00 in0.0 mm
04:35 AM -5537.2°C -5537.2°C - 2.0 mph NNW3.2 kmh NNW 3.0 mph4.8 kmh 30.54 in1034.2 mb 0.00 in0.0 mm 0.00 in/hr0.0 mm/hr 0.00 in0.0 mm
04:30 AM -5537.2°C -5537.2°C - 2.0 mph NNW3.2 kmh NNW 3.0 mph4.8 kmh 30.54 in1034.2 mb 0.00 in0.0 mm 0.00 in/hr0.0 mm/hr 0.00 in0.0 mm
04:25 AM -5537.2°C -5537.2°C - 1.0 mph NW1.6 kmh NW 2.0 mph3.2 kmh 30.54 in1034.2 mb 0.00 in0.0 mm 0.00 in/hr0.0 mm/hr 0.00 in0.0 mm
04:20 AM -5537.2°C -5537.2°C - 2.0 mph NNW3.2 kmh NNW 3.0 mph4.8 kmh 30.54 in1034.2 mb 0.00 in0.0 mm 0.00 in/hr0.0 mm/hr 0.00 in0.0 mm
04:15 AM -5537.2°C -5537.2°C - 2.0 mph NNW3.2 kmh NNW 3.0 mph4.8 kmh 30.54 in1034.2 mb 0.00 in0.0 mm 0.00 in/hr0.0 mm/hr 0.00 in0.0 mm
04:10 AM -5537.2°C -5537.2°C - 2.0 mph NNW3.2 kmh NNW 3.0 mph4.8 kmh 30.54 in1034.2 mb 0.00 in0.0 mm 0.00 in/hr0.0 mm/hr 0.00 in0.0 mm
04:05 AM -5537.2°C -5537.2°C - 2.0 mph NNW3.2 kmh NNW 3.0 mph4.8 kmh 30.54 in1034.2 mb 0.00 in0.0 mm 0.00 in/hr0.0 mm/hr 0.00 in0.0 mm
04:00 AM -5537.2°C -5537.2°C - 1.0 mph NNW1.6 kmh NNW 3.0 mph4.8 kmh 30.54 in1034.2 mb 0.00 in0.0 mm 0.00 in/hr0.0 mm/hr 0.00 in0.0 mm
03:55 AM -5537.2°C -5537.2°C - 1.0 mph NW1.6 kmh NW 2.0 mph3.2 kmh 30.54 in1034.2 mb 0.00 in0.0 mm 0.00 in/hr0.0 mm/hr 0.00 in0.0 mm
03:50 AM -5537.2°C -5537.2°C - Calm Calm 2.0 mph3.2 kmh 30.54 in1034.2 mb 0.00 in0.0 mm 0.00 in/hr0.0 mm/hr 0.00 in0.0 mm
03:45 AM -5537.2°C -5537.2°C - Calm Calm -- 30.54 in1034.2 mb 0.00 in0.0 mm 0.00 in/hr0.0 mm/hr 0.00 in0.0 mm
03:40 AM -5537.2°C -5537.2°C - Calm Calm -- 30.54 in1034.2 mb 0.00 in0.0 mm 0.00 in/hr0.0 mm/hr 0.00 in0.0 mm
03:35 AM -5537.2°C -5537.2°C - 1.0 mph NNW1.6 kmh NNW 2.0 mph3.2 kmh 30.54 in1034.2 mb 0.00 in0.0 mm 0.00 in/hr0.0 mm/hr 0.00 in0.0 mm
03:30 AM -5537.2°C -5537.2°C - 2.0 mph NNW3.2 kmh NNW 3.0 mph4.8 kmh 30.54 in1034.2 mb 0.00 in0.0 mm 0.00 in/hr0.0 mm/hr 0.00 in0.0 mm
03:25 AM -5537.2°C -5537.2°C - 2.0 mph NNW3.2 kmh NNW 2.0 mph3.2 kmh 30.54 in1034.2 mb 0.00 in0.0 mm 0.00 in/hr0.0 mm/hr 0.00 in0.0 mm
03:20 AM -5537.2°C -5537.2°C - 1.0 mph NNW1.6 kmh NNW 3.0 mph4.8 kmh 30.54 in1034.2 mb 0.00 in0.0 mm 0.00 in/hr0.0 mm/hr 0.00 in0.0 mm
03:15 AM -5537.2°C -5537.2°C - 2.0 mph NNW3.2 kmh NNW 3.0 mph4.8 kmh 30.54 in1034.2 mb 0.00 in0.0 mm 0.00 in/hr0.0 mm/hr 0.00 in0.0 mm
03:10 AM -5537.2°C -5537.2°C - 2.0 mph NNW3.2 kmh NNW 3.0 mph4.8 kmh 30.54 in1034.2 mb 0.00 in0.0 mm 0.00 in/hr0.0 mm/hr 0.00 in0.0 mm
03:05 AM -5537.2°C -5537.2°C - 2.0 mph NNW3.2 kmh NNW 3.0 mph4.8 kmh 30.54 in1034.2 mb 0.00 in0.0 mm 0.00 in/hr0.0 mm/hr 0.00 in0.0 mm
03:00 AM -5537.2°C -5537.2°C - 2.0 mph N3.2 kmh N 3.0 mph4.8 kmh 30.54 in1034.2 mb 0.00 in0.0 mm 0.00 in/hr0.0 mm/hr 0.00 in0.0 mm
02:55 AM -5537.2°C -5537.2°C - 2.0 mph NNW3.2 kmh NNW 3.0 mph4.8 kmh 30.54 in1034.2 mb 0.00 in0.0 mm 0.00 in/hr0.0 mm/hr 0.00 in0.0 mm
02:50 AM -5537.2°C -5537.2°C - 2.0 mph NNW3.2 kmh NNW 3.0 mph4.8 kmh 30.54 in1034.2 mb 0.00 in0.0 mm 0.00 in/hr0.0 mm/hr 0.00 in0.0 mm
02:45 AM -5537.2°C -5537.2°C - 2.0 mph NNW3.2 kmh NNW 4.0 mph6.4 kmh 30.54 in1034.2 mb 0.00 in0.0 mm 0.00 in/hr0.0 mm/hr 0.00 in0.0 mm
02:40 AM -5537.2°C -5537.2°C - 3.0 mph NNW4.8 kmh NNW 4.0 mph6.4 kmh 30.54 in1034.2 mb 0.00 in0.0 mm 0.00 in/hr0.0 mm/hr 0.00 in0.0 mm
02:35 AM -5537.2°C -5537.2°C - 3.0 mph N4.8 kmh N 4.0 mph6.4 kmh 30.54 in1034.2 mb 0.00 in0.0 mm 0.00 in/hr0.0 mm/hr 0.00 in0.0 mm
02:30 AM -5537.2°C -5537.2°C - 3.0 mph N4.8 kmh N 4.0 mph6.4 kmh 30.54 in1034.2 mb 0.00 in0.0 mm 0.00 in/hr0.0 mm/hr 0.00 in0.0 mm
02:25 AM -5537.2°C -5537.2°C - 3.0 mph NNW4.8 kmh NNW 4.0 mph6.4 kmh 30.54 in1034.2 mb 0.00 in0.0 mm 0.00 in/hr0.0 mm/hr 0.00 in0.0 mm
02:20 AM -5537.2°C -5537.2°C - 3.0 mph N4.8 kmh N 4.0 mph6.4 kmh 30.54 in1034.2 mb 0.00 in0.0 mm 0.00 in/hr0.0 mm/hr 0.00 in0.0 mm
02:15 AM -5537.2°C -5537.2°C - 3.0 mph N4.8 kmh N 4.0 mph6.4 kmh 30.54 in1034.2 mb 0.00 in0.0 mm 0.00 in/hr0.0 mm/hr 0.00 in0.0 mm
02:10 AM -5537.2°C -5537.2°C - 3.0 mph N4.8 kmh N 3.0 mph4.8 kmh 30.54 in1034.2 mb 0.00 in0.0 mm 0.00 in/hr0.0 mm/hr 0.00 in0.0 mm
02:05 AM -5537.2°C -5537.2°C - 3.0 mph NNW4.8 kmh NNW 4.0 mph6.4 kmh 30.54 in1034.2 mb 0.00 in0.0 mm 0.00 in/hr0.0 mm/hr 0.00 in0.0 mm
02:00 AM -5537.2°C -5537.2°C - 3.0 mph NNW4.8 kmh NNW 3.0 mph4.8 kmh 30.54 in1034.2 mb 0.00 in0.0 mm 0.00 in/hr0.0 mm/hr 0.00 in0.0 mm
01:55 AM -5537.2°C -5537.2°C - Calm Calm 2.0 mph3.2 kmh 30.54 in1034.2 mb 0.00 in0.0 mm 0.00 in/hr0.0 mm/hr 0.00 in0.0 mm
01:50 AM -5537.2°C -5537.2°C - Calm Calm 1.0 mph1.6 kmh 30.54 in1034.2 mb 0.00 in0.0 mm 0.00 in/hr0.0 mm/hr 0.00 in0.0 mm
01:45 AM -5537.2°C -5537.2°C - 1.0 mph NNW1.6 kmh NNW 2.0 mph3.2 kmh 30.54 in1034.2 mb 0.00 in0.0 mm 0.00 in/hr0.0 mm/hr 0.00 in0.0 mm
01:40 AM -5537.2°C -5537.2°C - 1.0 mph NNW1.6 kmh NNW 2.0 mph3.2 kmh 30.54 in1034.2 mb 0.00 in0.0 mm 0.00 in/hr0.0 mm/hr 0.00 in0.0 mm
01:35 AM -5537.2°C -5537.2°C - 1.0 mph NNW1.6 kmh NNW 2.0 mph3.2 kmh 30.54 in1034.2 mb 0.00 in0.0 mm 0.00 in/hr0.0 mm/hr 0.00 in0.0 mm
01:30 AM -5537.2°C -5537.2°C - 3.0 mph NNW4.8 kmh NNW 3.0 mph4.8 kmh 30.54 in1034.2 mb 0.00 in0.0 mm 0.00 in/hr0.0 mm/hr 0.00 in0.0 mm
01:25 AM -5537.2°C -5537.2°C - 3.0 mph NNW4.8 kmh NNW 4.0 mph6.4 kmh 30.54 in1034.2 mb 0.00 in0.0 mm 0.00 in/hr0.0 mm/hr 0.00 in0.0 mm
01:20 AM -5537.2°C -5537.2°C - 3.0 mph NNW4.8 kmh NNW 4.0 mph6.4 kmh 30.54 in1034.2 mb 0.00 in0.0 mm 0.00 in/hr0.0 mm/hr 0.00 in0.0 mm
01:15 AM -5537.2°C -5537.2°C - 3.0 mph NNW4.8 kmh NNW 4.0 mph6.4 kmh 30.54 in1034.2 mb 0.00 in0.0 mm 0.00 in/hr0.0 mm/hr 0.00 in0.0 mm
01:10 AM -5537.2°C -5537.2°C - 3.0 mph NNW4.8 kmh NNW 4.0 mph6.4 kmh 30.54 in1034.2 mb 0.00 in0.0 mm 0.00 in/hr0.0 mm/hr 0.00 in0.0 mm
01:05 AM -5537.2°C -5537.2°C - 2.0 mph NNW3.2 kmh NNW 4.0 mph6.4 kmh 30.54 in1034.2 mb 0.00 in0.0 mm 0.00 in/hr0.0 mm/hr 0.00 in0.0 mm
01:00 AM -5537.2°C -5537.2°C - 3.0 mph N4.8 kmh N 4.0 mph6.4 kmh 30.54 in1034.2 mb 0.00 in0.0 mm 0.00 in/hr0.0 mm/hr 0.00 in0.0 mm
12:55 AM -5537.2°C -5537.2°C - 3.0 mph NNW4.8 kmh NNW 4.0 mph6.4 kmh 30.54 in1034.2 mb 0.00 in0.0 mm 0.00 in/hr0.0 mm/hr 0.00 in0.0 mm
12:50 AM -5537.2°C -5537.2°C - 3.0 mph NNW4.8 kmh NNW 4.0 mph6.4 kmh 30.56 in1034.9 mb 0.00 in0.0 mm 0.00 in/hr0.0 mm/hr 0.00 in0.0 mm
12:45 AM -5537.2°C -5537.2°C - 3.0 mph N4.8 kmh N 5.0 mph8.0 kmh 30.57 in1035.2 mb 0.00 in0.0 mm 0.00 in/hr0.0 mm/hr 0.00 in0.0 mm
12:40 AM -5537.2°C -5537.2°C - 3.0 mph N4.8 kmh N 4.0 mph6.4 kmh 30.57 in1035.2 mb 0.00 in0.0 mm 0.00 in/hr0.0 mm/hr 0.00 in0.0 mm
12:35 AM -5537.2°C -5537.2°C - 3.0 mph N4.8 kmh N 4.0 mph6.4 kmh 30.56 in1034.9 mb 0.00 in0.0 mm 0.00 in/hr0.0 mm/hr 0.00 in0.0 mm
12:30 AM -5537.2°C -5537.2°C - 4.0 mph N6.4 kmh N 6.0 mph9.7 kmh 30.54 in1034.2 mb 0.00 in0.0 mm 0.00 in/hr0.0 mm/hr 0.00 in0.0 mm
12:25 AM -5537.2°C -5537.2°C - 4.0 mph NNE6.4 kmh NNE 6.0 mph9.7 kmh 30.54 in1034.2 mb 0.00 in0.0 mm 0.00 in/hr0.0 mm/hr 0.00 in0.0 mm
12:20 AM -5537.2°C -5537.2°C - 4.0 mph NNE6.4 kmh NNE 5.0 mph8.0 kmh 30.54 in1034.2 mb 0.00 in0.0 mm 0.00 in/hr0.0 mm/hr 0.00 in0.0 mm
12:15 AM -5537.2°C -5537.2°C - 3.0 mph N4.8 kmh N 4.0 mph6.4 kmh 30.54 in1034.2 mb 0.00 in0.0 mm 0.00 in/hr0.0 mm/hr 0.00 in0.0 mm
12:10 AM -5537.2°C -5537.2°C - 3.0 mph N4.8 kmh N 5.0 mph8.0 kmh 30.54 in1034.2 mb 0.00 in0.0 mm 0.00 in/hr0.0 mm/hr 0.00 in0.0 mm
12:05 AM -5537.2°C -5537.2°C - 3.0 mph N4.8 kmh N 6.0 mph9.7 kmh 30.56 in1034.9 mb 0.00 in0.0 mm 0.00 in/hr0.0 mm/hr 0.00 in0.0 mm
12:00 AM -5537.2°C -5537.2°C - 3.0 mph N4.8 kmh N 4.0 mph6.4 kmh 30.57 in1035.2 mb 0.00 in0.0 mm 0.00 in/hr0.0 mm/hr 0.00 in0.0 mm